[[{"header":{"parameterUnit":"m.s-1","parameterCategory":1,"la1":30.2991,"la2":30.254,"lo1":-89.0895,"lo2":-89.0444,"dy":0.0017,"dx":0.0017,"nx":28,"ny":28,"refTime":"2023-09-01T03:00:00:Z","depth":0,"parameterNumber":2,"parameterNumberName":"U-component_of_WINDS"},"data":[0,0,0,0,0,0,0,0,0,0,0,0,0,0,0,0,0,0,0,0,0,0,0,0,0,0,0,0,0,0,0,0,0,0,0,0,0,0,0,0,0,0,0,0,0,0,0,0,0,0,0,0,0,0,0,0,0,0,-0.1174,-0.1173,0,-0.1057,-0.1056,-0.1054,-0.0988,-0.0988,-0.0988,-0.0987,-0.0865,-0.0862,-0.0859,0,0,0,0,0,0,0,0,0,0,0,0,0,-0.1339,-0.1336,-0.1174,-0.1173,-0.1171,-0.1057,-0.1056,-0.1054,-0.0988,-0.0988,-0.0988,-0.0987,-0.0866,-0.0862,-0.0859,0,0,0,0,0,0,0,0,0,0,0,0,0,-0.1249,-0.1335,-0.1174,-0.1125,-0.1119,-0.1058,-0.1056,-0.1054,-0.0988,-0.0988,-0.0987,-0.0987,-0.0867,-0.0863,-0.0858,-0.0837,0,0,-0.0844,-0.0842,0,0,0,0,0,0,0,0,-0.1254,-0.1243,-0.1133,-0.1128,-0.1121,-0.1037,-0.1069,-0.0981,-0.0988,-0.1038,-0.0987,-0.0987,-0.0922,-0.0913,-0.0892,-0.0831,-0.0826,-0.0844,-0.0841,-0.0839,-0.0838,0,0,0,0,0,0,0,-0.1261,-0.1248,-0.1128,-0.1132,-0.1125,-0.1108,-0.1095,-0.1052,-0.0983,-0.1033,-0.1028,-0.1015,-0.0919,-0.0896,-0.0889,-0.0824,-0.0844,-0.084,-0.0837,-0.0835,-0.0741,-0.0742,0,0,0,0,0,0,-0.1275,-0.1253,-0.1131,-0.1124,-0.1188,-0.1105,-0.109,-0.1064,-0.0983,-0.0971,-0.1016,-0.1013,-0.0904,-0.0894,-0.0884,-0.0855,-0.0839,-0.0835,-0.0832,-0.0741,-0.0742,-0.0742,0,0,0,0,0,0,-0.1279,-0.1265,-0.1136,-0.1187,-0.117,-0.1102,-0.1074,-0.1062,-0.104,-0.097,-0.0958,-0.1006,-0.0904,-0.089,-0.085,-0.085,-0.0833,-0.0829,-0.0741,-0.0741,-0.0742,-0.0796,0,0,0,0,0,0,-0.1284,-0.1267,-0.1258,-0.1188,-0.1167,-0.1104,-0.1074,-0.106,-0.1032,-0.1027,-0.0957,-0.0945,-0.0902,-0.0857,-0.0845,-0.0843,-0.0825,-0.0741,-0.0741,-0.0742,-0.0794,-0.0798,-0.0802,0,0,0,0,0,-0.129,-0.1277,-0.1258,-0.1243,-0.1155,-0.1104,-0.1093,-0.1044,-0.1033,-0.1023,-0.0979,-0.0948,-0.0852,-0.0853,-0.0839,-0.0836,-0.074,-0.0741,-0.0741,-0.0792,-0.0797,-0.0802,0,0,0,0,0,0,-0.1347,-0.1266,-0.1245,-0.1208,-0.1164,-0.1093,-0.108,-0.1051,-0.1008,-0.1005,-0.0946,-0.0931,-0.0896,-0.0861,-0.0865,-0.0812,-0.0793,-0.079,-0.0836,-0.084,-0.0844,-0.0853,-0.0821,0,0,0,0,0,-0.1356,-0.1322,-0.1253,-0.1228,-0.1207,-0.1148,-0.1123,-0.109,-0.1041,-0.1022,-0.0975,-0.0928,-0.0887,-0.0862,-0.082,-0.0788,-0.0773,-0.0779,-0.0783,-0.0787,-0.0786,-0.0768,-0.0771,-0.0744,-0.0744,-0.0744,0,0,-0.1373,-0.1325,-0.1306,-0.1238,-0.12,-0.1166,-0.1132,-0.1097,-0.1071,-0.1016,-0.0976,-0.0939,-0.0883,-0.0848,-0.0829,-0.0818,-0.079,-0.0788,-0.0791,-0.0788,-0.0769,-0.0772,-0.0774,-0.0744,-0.0744,-0.0744,0,0,-0.1387,-0.1347,-0.1322,-0.1285,-0.1228,-0.1189,-0.1183,-0.1117,-0.1091,-0.105,-0.1009,-0.0977,-0.0908,-0.087,-0.0842,-0.0844,-0.0814,-0.0832,-0.0853,-0.0837,-0.0839,-0.0841,-0.0843,-0.0844,-0.0831,-0.0832,-0.0832,0,-0.1415,-0.1363,-0.1313,-0.1281,-0.1252,-0.1203,-0.1178,-0.1143,-0.1076,-0.1057,-0.1045,-0.0959,-0.0918,-0.0873,-0.0875,-0.0853,-0.0845,-0.084,-0.0843,-0.0844,-0.0845,-0.0846,-0.0847,-0.0834,-0.0834,-0.0834,-0.0833,0,-0.1401,-0.1365,-0.1352,-0.129,-0.126,-0.1231,-0.1177,-0.1153,-0.1123,-0.1085,-0.1045,-0.0993,-0.0942,-0.0929,-0.0898,-0.0881,-0.0875,-0.0854,-0.0834,-0.0851,-0.0851,-0.0851,-0.0838,-0.0837,-0.0836,-0.0836,0,0,-0.1446,-0.1358,-0.1354,-0.1326,-0.1261,-0.1232,-0.1202,-0.1153,-0.1134,-0.1089,-0.1063,-0.1006,-0.0987,-0.0955,-0.092,-0.0906,-0.0913,-0.0886,-0.0884,-0.0894,-0.0892,-0.091,-0.0911,-0.0893,-0.0893,-0.0892,-0.0897,0,-0.1452,-0.1396,-0.1351,-0.1312,-0.128,-0.1233,-0.1207,-0.1164,-0.1128,-0.1095,-0.1056,-0.1018,-0.0994,-0.0975,-0.0958,-0.0916,-0.0912,-0.0914,-0.0868,-0.0867,-0.0885,-0.0911,-0.0928,-0.0935,-0.0897,-0.0897,-0.0897,0,-0.145,-0.1409,-0.1368,-0.1307,-0.1292,-0.1269,-0.1222,-0.1191,-0.1141,-0.1117,-0.1083,-0.1047,-0.1013,-0.0997,-0.095,-0.0953,-0.0931,-0.0908,-0.0907,-0.0901,-0.0884,-0.0907,-0.0936,-0.0938,-0.0896,-0.0896,-0.0896,0,-0.1489,-0.1423,-0.139,-0.1368,-0.1296,-0.1282,-0.1251,-0.1201,-0.1176,-0.1134,-0.1116,-0.1071,-0.1046,-0.1012,-0.0965,-0.0957,-0.0924,-0.0903,-0.0903,-0.0905,-0.0898,-0.09,-0.0926,-0.0883,-0.0883,-0.0883,-0.0883,0,-0.15,-0.1477,-0.1407,-0.1387,-0.136,-0.1309,-0.1284,-0.1249,-0.1206,-0.1178,-0.1134,-0.1109,-0.1049,-0.1016,-0.0979,-0.0948,-0.0936,-0.0916,-0.0906,-0.092,-0.0923,-0.0906,-0.0904,-0.0884,-0.0884,-0.0883,-0.0883,0,-0.1539,-0.1492,-0.1453,-0.1389,-0.1373,-0.1356,-0.1301,-0.128,-0.1243,-0.1209,-0.1198,-0.1139,-0.1099,-0.105,-0.0993,-0.0968,-0.0941,-0.0926,-0.0958,-0.0953,-0.0957,-0.0958,-0.0973,-0.0974,-0.093,-0.0931,-0.0931,0,-0.155,-0.1531,-0.1466,-0.1445,-0.1416,-0.1383,-0.1357,-0.1306,-0.128,-0.1224,-0.121,-0.1167,-0.113,-0.1069,-0.1021,-0.0979,-0.0963,-0.0971,-0.0956,-0.0971,-0.0965,-0.0967,-0.0965,-0.0976,-0.0976,-0.0977,-0.0977,0,-0.1574,-0.1552,-0.1516,-0.1473,-0.1444,-0.1407,-0.1368,-0.1353,-0.1294,-0.1268,-0.1228,-0.12,-0.1143,-0.1102,-0.1053,-0.1021,-0.099,-0.0983,-0.0981,-0.0995,-0.1015,-0.1006,-0.097,-0.0983,-0.0982,-0.0982,-0.0981,-0.0981,-0.1599,-0.1581,-0.1534,-0.1496,-0.1462,-0.1427,-0.1405,-0.1366,-0.1332,-0.1283,-0.1255,-0.1216,-0.1169,-0.1101,-0.107,-0.1039,-0.1027,-0.1024,-0.1023,-0.1024,-0.1029,-0.102,-0.103,-0.103,-0.103,-0.1029,-0.1029,0,-0.1622,-0.159,-0.1556,-0.1504,-0.1475,-0.1449,-0.1405,-0.1383,-0.1349,-0.1308,-0.1274,-0.1228,-0.1188,-0.1138,-0.1095,-0.108,-0.1065,-0.1071,-0.1072,-0.1065,-0.1041,-0.1048,-0.1084,-0.1084,-0.1084,-0.1084,-0.1084,-0.1084,-0.1631,-0.16,-0.1573,-0.1525,-0.1492,-0.1454,-0.1432,-0.14,-0.1367,-0.1319,-0.1286,-0.1255,-0.121,-0.1164,-0.1127,-0.1113,-0.11,-0.111,-0.1093,-0.1071,-0.1066,-0.1062,-0.1068,-0.1108,-0.1108,-0.1119,-0.1119,-0.1119]},{"header":{"parameterUnit":"m.s-1","parameterCategory":1,"la1":30.2991,"la2":30.254,"lo1":-89.0895,"lo2":-89.0444,"dy":0.0017,"dx":0.0017,"nx":28,"ny":28,"refTime":"2023-09-01T03:00:00:Z","depth":0,"parameterNumber":3,"parameterNumberName":"V-component_of_WINDS"},"data":[0,0,0,0,0,0,0,0,0,0,0,0,0,0,0,0,0,0,0,0,0,0,0,0,0,0,0,0,0,0,0,0,0,0,0,0,0,0,0,0,0,0,0,0,0,0,0,0,0,0,0,0,0,0,0,0,0,0,2.6721,2.6721,0,2.674,2.6741,2.6741,2.6711,2.671,2.6709,2.6708,2.6726,2.6727,2.6729,0,0,0,0,0,0,0,0,0,0,0,0,0,2.6652,2.6653,2.6721,2.6721,2.6721,2.674,2.6741,2.6741,2.6711,2.671,2.6709,2.6707,2.6725,2.6727,2.6729,0,0,0,0,0,0,0,0,0,0,0,0,0,2.6678,2.6654,2.6721,2.6709,2.6708,2.674,2.6741,2.6741,2.6711,2.671,2.6708,2.6707,2.6725,2.6727,2.6729,2.6774,0,0,2.6736,2.6737,0,0,0,0,0,0,0,0,2.6676,2.668,2.671,2.671,2.6709,2.6722,2.6723,2.6752,2.6712,2.671,2.6708,2.6706,2.6726,2.6728,2.6735,2.6774,2.6775,2.6736,2.6737,2.6738,2.6739,0,0,0,0,0,0,0,2.6675,2.6679,2.6728,2.6711,2.671,2.6701,2.6703,2.6728,2.6726,2.671,2.6708,2.6711,2.6725,2.6733,2.6735,2.6775,2.6736,2.6738,2.6739,2.674,2.6846,2.6848,0,0,0,0,0,0,2.6675,2.6678,2.6728,2.6729,2.6688,2.6703,2.6705,2.6719,2.6726,2.6725,2.6712,2.6709,2.673,2.6732,2.6735,2.6783,2.6738,2.674,2.6741,2.6845,2.6847,2.6848,0,0,0,0,0,0,2.6673,2.668,2.6727,2.6703,2.6708,2.6706,2.6722,2.672,2.6728,2.6727,2.6726,2.6721,2.6729,2.6732,2.6763,2.6784,2.6741,2.6743,2.6843,2.6846,2.6848,2.6883,0,0,0,0,0,0,2.6672,2.6679,2.6698,2.6704,2.671,2.6756,2.6723,2.6722,2.6732,2.6729,2.6735,2.6735,2.6728,2.676,2.6765,2.6786,2.6745,2.6841,2.6844,2.6847,2.688,2.6886,2.6891,0,0,0,0,0,2.6669,2.6708,2.6699,2.6705,2.6733,2.6758,2.6761,2.6752,2.6734,2.6751,2.675,2.6735,2.6781,2.6763,2.6769,2.6791,2.684,2.6843,2.6847,2.6877,2.6885,2.6891,0,0,0,0,0,0,2.6705,2.6708,2.6699,2.674,2.6749,2.6752,2.6774,2.6762,2.6775,2.6771,2.6759,2.6761,2.6793,2.6796,2.6776,2.6831,2.6807,2.6812,2.6828,2.6836,2.6841,2.6839,2.6747,0,0,0,0,0,2.6717,2.6738,2.674,2.6776,2.6781,2.6777,2.6787,2.678,2.6788,2.6791,2.6792,2.68,2.6815,2.6826,2.6841,2.6881,2.6879,2.6898,2.6904,2.6909,2.6912,2.6928,2.6935,2.686,2.686,2.686,0,0,2.6744,2.6748,2.6762,2.6783,2.6789,2.6808,2.678,2.6803,2.6816,2.6794,2.6822,2.6823,2.6831,2.6864,2.688,2.6867,2.6932,2.6913,2.6917,2.6917,2.6932,2.6939,2.6945,2.6862,2.6862,2.6861,0,0,2.6801,2.6808,2.6837,2.6842,2.6851,2.6847,2.6854,2.6859,2.6858,2.6886,2.6868,2.6884,2.6913,2.6917,2.6923,2.6977,2.6962,2.6982,2.7012,2.7027,2.7033,2.7038,2.7053,2.7059,2.6986,2.6986,2.6986,0,2.6832,2.6862,2.6853,2.6876,2.6883,2.6864,2.689,2.6896,2.6909,2.6914,2.6901,2.6933,2.6937,2.6969,2.6982,2.6989,2.6993,2.698,2.7033,2.7038,2.7043,2.7057,2.7063,2.6988,2.6988,2.6988,2.6988,0,2.6897,2.6918,2.694,2.6951,2.6961,2.6987,2.6979,2.6991,2.6982,2.6978,2.7005,2.7008,2.7021,2.7029,2.7021,2.7059,2.705,2.7036,2.701,2.7052,2.7065,2.7071,2.6991,2.6991,2.699,2.6989,0,0,2.6977,2.6981,2.6989,2.6991,2.6998,2.7012,2.7035,2.7047,2.7055,2.7065,2.708,2.7103,2.7088,2.7095,2.7087,2.7102,2.7138,2.7084,2.7084,2.7091,2.7175,2.7183,2.719,2.7129,2.713,2.7131,2.7173,0,2.703,2.7068,2.7059,2.7097,2.7113,2.7093,2.7112,2.7116,2.7113,2.7125,2.7122,2.7137,2.7118,2.7121,2.7135,2.7131,2.7154,2.7129,2.7141,2.7141,2.7137,2.7198,2.7208,2.7247,2.7178,2.7179,2.718,0,2.7097,2.7106,2.7145,2.7144,2.7151,2.7168,2.7176,2.7189,2.7192,2.7189,2.7195,2.7183,2.7202,2.7179,2.7202,2.7185,2.7189,2.7188,2.7189,2.7188,2.7161,2.7194,2.726,2.7264,2.7189,2.7188,2.7187,0,2.7145,2.7168,2.7193,2.7196,2.7198,2.7209,2.721,2.7212,2.7219,2.7226,2.7229,2.7239,2.7244,2.725,2.724,2.7225,2.7264,2.7241,2.7259,2.7259,2.7266,2.7265,2.733,2.7275,2.7275,2.7275,2.7274,0,2.7203,2.7226,2.7214,2.7229,2.7253,2.7241,2.7265,2.7264,2.7265,2.7277,2.7262,2.7274,2.7261,2.7271,2.7264,2.7282,2.7285,2.7281,2.7278,2.728,2.728,2.7281,2.7277,2.7276,2.7276,2.7275,2.7275,0,2.726,2.7254,2.7278,2.7276,2.7276,2.7294,2.7291,2.7304,2.7299,2.7315,2.7318,2.731,2.732,2.7312,2.7323,2.7317,2.734,2.7335,2.7339,2.7336,2.7353,2.735,2.7418,2.7425,2.7369,2.7369,2.737,0,2.7296,2.7313,2.7312,2.7319,2.732,2.7333,2.7338,2.7327,2.7334,2.7337,2.7348,2.7357,2.7364,2.7381,2.7375,2.7382,2.7375,2.7398,2.7376,2.7376,2.7371,2.7368,2.7368,2.7402,2.7402,2.7403,2.7403,0,2.7358,2.7353,2.7362,2.7369,2.7377,2.7382,2.7386,2.7393,2.7381,2.7389,2.7399,2.7404,2.7413,2.7421,2.7426,2.7425,2.7411,2.7411,2.7414,2.7416,2.7415,2.7412,2.7347,2.7409,2.7408,2.7408,2.7407,2.7407,2.7402,2.7414,2.7415,2.7425,2.7426,2.7429,2.744,2.7435,2.7444,2.745,2.7444,2.7455,2.7454,2.7459,2.746,2.7467,2.7457,2.7464,2.7465,2.7466,2.7467,2.7417,2.7468,2.7468,2.7468,2.7468,2.7468,0,2.7459,2.7458,2.7468,2.7472,2.7479,2.7467,2.747,2.7476,2.7486,2.7487,2.7493,2.7503,2.751,2.7504,2.751,2.7516,2.751,2.7518,2.7515,2.7515,2.7477,2.7471,2.7523,2.7522,2.7522,2.7522,2.7522,2.7522,2.749,2.7508,2.7503,2.7521,2.752,2.753,2.7532,2.7534,2.7535,2.7546,2.7552,2.7548,2.7546,2.755,2.7555,2.7553,2.7554,2.7564,2.7559,2.7523,2.7518,2.7513,2.7507,2.7565,2.7565,2.7595,2.7596,2.7596]}]]